Regional Weather Roundup
Issued by NWS Spokane, WA

Home | Current Version | Previous Version | Text Only | Print | Product List | Glossary On
Versions: 1 2 3 4 5 6 7 8 9 10 11 12 13 14 15 16 17 18 19 20 21 22 23 24 25 26 27 28 29 30 31 32 33 34 35 36 37 38 39 40 41 42 43 44 45 46 47 48 49 50
150
NZUS01 KOTX 010605
RWROTX
EASTERN WASHINGTON/NORTHERN IDAHO ROUNDUP
NATIONAL WEATHER SERVICE, SPOKANE WA
1100 PM PDT TUE MAY 31 2016

Note: "fair" indicated few or no clouds below 12,000 feet with no
significant weather and/or obstructions to visibility.

...NORTHEAST WASHINGTON AND NORTHERN IDAHO PANHANDLE...

CITY           SKY/WX    TMP DP  RH WIND       PRES   REMARKS
SPOKANE INTL   MOCLDY    65  38  36 S6        30.01F
SPOKANE DOWNTO PTCLDY    60  41  49 NE6       30.01F
COEUR D ALENE  CLEAR     57  45  62 E3        30.00F
DEER PARK      PTCLDY    50  42  74 NE5       30.01F
SANDPOINT      PTCLDY    52  45  76 CALM      30.03S
BONNERS FERRY  FAIR      55  45  67 CALM      30.03S

...SOUTHEAST WASHINGTON AND SOUTHERN IDAHO PANHANDLE...

CITY           SKY/WX    TMP DP  RH WIND       PRES   REMARKS
WALLA WALLA    CLEAR     60  45  57 E7        29.94F
PULLMAN/MOSCOW PTCLDY    51  42  71 CALM      30.04F
LEWISTON       CLEAR     62  42  47 S7        29.98F
LOWELL           N/A     54  46  74 CALM      30.06R

...COLUMBIA BASIN...

CITY           SKY/WX    TMP DP  RH WIND       PRES   REMARKS
EPHRATA        MOCLDY    64  35  34 CALM      29.95S
MOSES LAKE     PTCLDY    66  40  38 SE5       29.95F
TRI CITIES     PTCLDY    57  51  80 N3        29.93S
HERMISTON      PTCLDY    59  44  57 SE5       29.92S
PENDLETON      PTCLDY    60  42  51 S5        29.95F

...EAST SLOPES CASCADES...

CITY           SKY/WX    TMP DP  RH WIND       PRES   REMARKS
THE DALLES     PTCLDY    67  38  34 CALM      29.91S
YAKIMA         MOCLDY    63  45  51 W5        29.96S
ELLENSBURG     CLOUDY    64  42  44 NE7       29.97F
STAMPEDE PASS  MOCLDY    56  40  55 SW3       30.07F
WENATCHEE      MOCLDY    70  38  31 E6        29.94F
OMAK           MOCLDY    66  37  34 S5        29.95F

...SOUTHERN BRITISH COLUMBIA...

CITY           SKY/WX    TMP DP  RH WIND       PRES   REMARKS

...WESTERN MONTANA...

CITY           SKY/WX    TMP DP  RH WIND       PRES   REMARKS
MISSOULA       CLEAR     51  38  60 N8        30.08F

...NEIGHBORING CITIES...

CITY           SKY/WX    TMP DP  RH WIND       PRES   REMARKS
SEATTLE        MOCLDY    66  44  45 N6        29.97S



USA.gov is the U.S. government's official web portal to all federal, state and local government web resources and services.